#timestamp,LO_Frequency,Hit 
1499882415.2,286046921.3,N
1499882435.0,286046919.7,N
1499882435.9,286046919.7,N
1499882455.7,286046919.3,N
1499882475.6,286046919.0,N
1499882495.4,286046918.8,N
1499882515.2,286046918.8,N
1499882535.1,286046919.7,N
1499882536.0,286046919.7,N
1499882555.8,286046921.2,N
1499882575.6,286046918.4,N
1499882595.5,286046921.0,N
1499882615.3,286046921.8,N
1499882635.1,286046923.9,N
1499882655.9,286046923.9,N
1499882675.7,286046922.3,N
1499882695.5,286046920.2,N
1499882715.4,286046918.7,N
1499882735.2,286046919.0,N
1499882755.0,286046920.0,N
1499882755.9,286046920.0,N
1499882775.8,286046920.3,N
1499882795.6,286046918.1,N
1499882815.4,286046916.9,N
1499882835.2,286046918.7,N
1499882855.1,286046922.6,N
1499882856.0,286046922.6,N
1499882875.8,286046923.9,N
1499882895.6,286046921.8,N
1499882915.5,286046919.8,N
1499882935.3,286046920.5,N
1499882955.1,286046919.1,N
1499882975.9,286046921.0,N
1499882995.7,286046920.2,N
1499883015.5,286046920.7,N
1499883035.4,286046920.9,N
1499883055.2,286046920.6,N
1499883075.0,286046918.4,N
1499883075.9,286046918.4,N
1499883095.8,286046917.0,N
1499883115.6,286046917.3,N
1499883135.4,286046917.9,N
1499883155.3,286046918.4,N
1499883175.1,286046918.8,N
1499883176.0,286046918.8,N
1499883195.8,286046920.0,N
1499883215.7,286046920.2,N
1499883235.5,286046922.4,N
1499883255.3,286046921.5,N
1499883275.1,286046924.1,N
1499883295.9,286046924.7,N
1499883315.7,286046927.5,N
1499883335.5,286046925.4,N
1499883355.4,286046924.1,N
1499883375.2,286046923.3,N
1499883395.0,286046924.8,N
1499883395.9,286046924.8,N
1499883415.8,286046925.0,N
1499883435.6,286046923.1,N
1499883455.4,286046923.8,N
1499883475.3,286046925.6,N
1499883495.1,286046927.6,N
1499883496.0,286046927.6,N
1499883515.8,286046925.2,N
1499883535.7,286046921.8,N
1499883555.5,286046922.9,N
1499883575.3,286046925.0,N
1499883595.2,286046924.1,N
1499883615.9,286046923.7,N
1499883635.7,286046923.7,N
1499883655.5,286046923.6,N
1499883675.4,286046922.9,N
1499883695.2,286046925.3,N
1499883715.0,286046925.9,N
1499883715.9,286046925.9,N
1499883735.8,286046922.0,N
1499883755.6,286046921.9,N
1499883775.4,286046922.1,N
1499883795.3,286046924.7,N
1499883815.1,286046925.8,N
1499883835.8,286046922.9,N
1499883855.7,286046926.0,N
1499883875.5,286046923.2,N
1499883895.3,286046921.3,N
1499883915.2,286046925.7,N
1499883935.9,286046925.2,N
1499883955.7,286046927.5,N
1499883975.6,286046929.1,N
1499883995.4,286046928.7,N
1499884015.2,286046930.7,N
1499884035.0,286046926.5,N
1499884036.0,286046926.5,N
1499884055.8,286046925.5,N
1499884075.6,286046923.5,N
1499884095.4,286046928.7,N
1499884115.3,286046931.6,N
1499884135.1,286046930.3,N
1499884155.8,286046930.4,N
1499884175.7,286046930.4,N
1499884195.5,286046929.9,N
1499884215.3,286046927.7,N
1499884235.2,286046930.7,N
1499884255.9,286046930.2,N
1499884275.7,286046926.1,N
1499884295.6,286046924.5,N
1499884315.4,286046928.7,N
1499884335.2,286046927.7,N
1499884355.0,286046930.4,N
1499884356.0,286046930.4,N
1499884375.8,286046930.8,N
1499884395.6,286046926.9,N
1499884415.4,286046925.8,N
1499884435.3,286046927.2,N
1499884455.1,286046926.3,N
1499884475.8,286046930.8,N
1499884495.7,286046928.6,N
1499884515.5,286046928.9,N
1499884535.3,286046930.4,N
1499884555.2,286046930.3,N
1499884575.9,286046927.9,N
1499884595.7,286046929.8,N
1499884615.6,286046932.2,N
1499884635.4,286046933.9,N
1499884655.2,286046932.9,N
1499884675.1,286046935.2,N
1499884676.0,286046935.2,N
1499884695.8,286046932.5,N
1499884715.6,286046932.5,N
1499884735.5,286046935.4,N
1499884755.3,286046933.6,N
1499884775.1,286046935.6,N
1499884795.8,286046935.1,N
1499884815.7,286046935.6,N
1499884835.5,286046935.2,N
1499884855.3,286046934.7,N
1499884875.2,286046934.5,N
1499884895.0,286046936.2,N
1499884895.9,286046936.2,N
1499884915.7,286046935.3,N
1499884935.6,286046934.8,N
1499884955.4,286046934.6,N
1499884975.2,286046934.8,N
1499884995.1,286046932.8,N
1499884996.0,286046932.8,N
1499885015.8,286046933.7,N
1499885035.6,286046935.4,N
1499885055.5,286046934.8,N
1499885075.3,286046933.1,N
1499885095.1,286046933.0,N
1499885115.9,286046934.9,N
1499885135.7,286046935.5,N
1499885155.5,286046934.7,N
1499885175.3,286046930.9,N
1499885195.2,286046934.0,N
1499885215.0,286046935.3,N
1499885215.9,286046935.3,N
1499885235.7,286046933.0,N
1499885255.6,286046935.2,N
1499885275.4,286046934.3,N
1499885295.2,286046935.3,N
1499885315.1,286046935.0,N
1499885316.0,286046935.0,N
1499885335.8,286046935.6,N
1499885355.6,286046934.1,N
1499885375.5,286046936.3,N
1499885395.3,286046934.3,N
1499885415.1,286046934.7,N
1499885435.9,286046934.9,N
1499885455.7,286046932.5,N
1499885475.5,286046931.1,N
1499885495.4,286046935.6,N
1499885515.2,286046929.5,N
1499885535.0,286046928.0,N
1499885535.9,286046928.0,N
1499885555.8,286046931.5,N
1499885575.6,286046932.8,N
1499885595.4,286046933.4,N
1499885615.3,286046933.1,N
1499885635.1,286046934.9,N
1499885636.0,286046934.9,N
1499885655.8,286046934.5,N
1499885675.7,286046933.6,N
1499885695.5,286046934.0,N
1499885715.3,286046933.9,N
1499885735.1,286046932.7,N
1499885755.9,286046932.6,N
1499885775.7,286046931.9,N
1499885795.5,286046933.8,N
1499885815.4,286046931.6,N
1499885835.2,286046930.1,N
1499885855.0,286046932.0,N
1499885855.9,286046932.0,N
1499885875.8,286046933.1,N
1499885895.6,286046931.8,N
1499885915.4,286046931.1,N
1499885935.3,286046933.3,N
1499885955.1,286046935.2,N
1499885956.0,286046935.2,N
1499885975.8,286046935.6,N
1499885995.7,286046934.3,N
